Погода в Катричеве

Россия / Волгоградская область     49°22′50″N   45°32′17″E
темп.,
°C
ветер,
м/с
пор.,
м/с
влажн.,
%
обл.,
%
осадки,
мм/ч
давл.,
гПа
погр.,
м
13 июня, вс
вс1300:00+19в22660 0.1 101211
03:00+18ююз116999 0.1 101211
06:00+20ююв1169100 0.8 101289
09:00+19ююз3584100 2.3 1013254
12:00+20зюз3681100 1.5 1013345
15:00+25ююв2251100 1.5 1012603
18:00+25юв235597 0.0 1012417
21:00+21в2265100 0.0 101211
14 июня, пн
пн1400:00+19ююз4682100 0.7 1013123
03:00+19ссз4582100 1.0 101295
06:00+18всв2382100 1.1 101471
09:00+18св4990100 4.0 1014433
12:00+18св5992100 2.1 1015428
15:00+18ссв4793100 3.0 1014330
18:00+18ссв4694100 0.5 1014194
21:00+18ссв3794100 0.6 1014224
15 июня, вт
вт1500:00+16ссв349656 0.0 101393
03:00+16ссв239833 0.0 101249
06:00+18с349118 0.0 1012194
09:00+24ссв446971 0.0 1010687
12:00+28св334818 0.0 10091537
15:00+29с11365 0.0 10082024
18:00+28сз45480 0.0 1007278
21:00+22ссз47710 0.0 1008113
16 июня, ср
ср1600:00+20ссз49780 0.0 1009161
03:00+19ссз46764 0.0 1009107
06:00+21сз35720 0.0 1009178
09:00+26сз34534 0.0 1010758
12:00+29зсз33435 0.0 10101501
15:00+30з334198 0.0 10091623
18:00+29зсз114634 0.0 10091190
21:00+24ссз336479 0.0 101128
17 июня, чт
чт1700:00+23ссв4768100 0.0 1011135
03:00+21св3472100 0.0 101168
06:00+23ссв457215 0.0 1012210
09:00+27св56555 0.0 1012775
12:00+30св554390 0.0 10121242
15:00+31ссв77439 0.0 10121395
18:00+28св7105685 0.0 1012649
21:00+23ссв121773100 0.0 1011544